DW9882 Weather Reports


time (UTC)temp
F
wind
direction
speed
knots
gust
knots
rain 1hr
in
rain 24hr
in
rain mn
in
humidity
%
barometer
mb
20260906133204 61 242 0.0 0.9 0.00 0.00 0.00 83 1021.1
20260906132705 61 242 0.0 0.0 0.00 0.00 0.00 83 1021.1
20260906132205 61 242 0.0 0.0 0.00 0.00 0.00 83 1021.0
20260906131204 61 242 0.0 0.0 0.00 0.00 0.00 82 1021.1
20260906130704 61 242 0.0 0.0 0.00 0.00 0.00 82 1021.0
20260906125704 61 242 0.0 0.0 0.00 0.00 0.00 81 1020.9
20260906125204 61 242 0.0 0.0 0.00 0.00 0.00 81 1020.8
20260906124705 61 242 0.0 0.0 0.00 0.00 0.00 80 1020.8
20260906123705 61 242 0.0 0.0 0.00 0.00 0.00 80 1020.8
20260906123205 62 242 0.0 0.0 0.00 0.00 0.00 79 1020.8
20260906122704 62 242 0.0 0.0 0.00 0.00 0.00 79 1020.8
20260906121205 62 242 0.0 0.0 0.00 0.00 0.00 78 1020.9
20260906120204 63 242 0.0 0.0 0.00 0.00 0.00 77 1020.9
20260906115204 63 242 0.0 0.0 0.00 0.00 0.00 77 1020.8
20260906114205 63 242 0.0 0.0 0.00 0.00 0.00 76 1020.8
20260906113204 63 242 0.0 0.0 0.00 0.00 0.00 75 1020.8
20260906112704 63 242 0.0 0.0 0.00 0.00 0.00 74 1020.8
20260906112204 64 242 0.0 0.0 0.00 0.00 0.00 73 1020.8
20260906111705 64 242 0.0 0.0 0.00 0.00 0.00 72 1020.7
20260906111204 64 242 0.0 0.0 0.00 0.00 0.00 72 1020.6
20260906110704 64 242 0.0 0.0 0.00 0.00 0.00 71 1020.6
20260906110204 64 242 0.0 0.0 0.00 0.00 0.00 69 1020.5
20260906105705 64 242 0.0 0.9 0.00 0.00 0.00 68 1020.6
20260906104705 64 242 0.0 0.9 0.00 0.00 0.00 67 1020.5
20260906103204 64 227 0.0 0.9 0.00 0.00 0.00 65 1020.5
20260906102704 65 227 0.0 2.6 0.00 0.00 0.00 65 1020.4
20260906102204 65 227 0.0 0.0 0.00 0.00 0.00 64 1020.3
20260906100704 65 227 0.0 0.0 0.00 0.00 0.00 62 1020.3
20260906100204 66 227 0.0 0.0 0.00 0.00 0.00 62 1020.4
20260906095705 66 227 0.0 0.0 0.00 0.00 0.00 61 1020.3
20260906095205 66 227 0.0 0.0 0.00 0.00 0.00 60 1020.5
20260906094704 66 227 0.0 0.0 0.00 0.00 0.00 59 1020.3
20260906094204 66 227 0.0 0.0 0.00 0.00 0.00 58 1020.4
20260906093705 67 227 0.0 0.0 0.00 0.00 0.00 58 1020.3
20260906093204 67 227 0.0 0.0 0.00 0.00 0.00 58 1020.4
20260906092704 67 227 0.0 0.0 0.00 0.00 0.00 57 1020.4
20260906092205 67 227 0.0 0.0 0.00 0.00 0.00 57 1020.3
20260906091704 67 227 0.0 0.0 0.00 0.00 0.00 57 1020.3
20260906091204 67 227 0.0 0.0 0.00 0.00 0.00 56 1020.2
20260906090704 67 227 0.0 0.0 0.00 0.00 0.00 57 1020.2
20260906085704 68 227 0.0 0.9 0.00 0.00 0.00 56 1020.1
20260906085204 68 227 0.0 0.9 0.00 0.00 0.00 56 1020.0
20260906084704 69 227 0.0 0.0 0.00 0.00 0.00 56 1020.0
20260906084205 69 227 0.0 0.0 0.00 0.00 0.00 55 1020.0
20260906083704 69 227 0.0 0.0 0.00 0.00 0.00 55 1020.0
20260906083204 69 227 0.0 0.0 0.00 0.00 0.00 55 1020.0
20260906082704 70 227 0.0 0.0 0.00 0.00 0.00 54 1020.0
20260906082205 70 227 0.0 0.0 0.00 0.00 0.00 54 1019.9
20260906081704 70 227 0.0 0.9 0.00 0.00 0.00 53 1019.9
20260906081204 70 227 0.0 0.9 0.00 0.00 0.00 54 1019.9
20260906080704 70 227 0.0 0.0 0.00 0.00 0.00 53 1019.8
20260906080205 70 227 0.0 0.9 0.00 0.00 0.00 53 1019.8
20260906075704 70 227 0.0 0.9 0.00 0.00 0.00 53 1019.7
20260906075204 70 227 0.9 2.6 0.00 0.00 0.00 53 1019.7
20260906073704 70 239 0.9 1.7 0.00 0.00 0.00 52 1019.6
20260906073204 70 239 0.0 0.9 0.00 0.00 0.00 52 1019.6
20260906072704 70 239 0.9 2.6 0.00 0.00 0.00 52 1019.6
20260906072204 70 252 0.0 1.7 0.00 0.00 0.00 52 1019.6
20260906071705 70 252 0.0 0.0 0.00 0.00 0.00 53 1019.6
20260906071204 70 252 0.0 0.9 0.00 0.00 0.00 53 1019.6
20260906070704 70 252 0.0 2.6 0.00 0.00 0.00 53 1019.6
20260906070204 70 213 0.9 2.6 0.00 0.00 0.00 53 1019.6
20260906065704 70 290 0.9 2.6 0.00 0.00 0.00 54 1019.7
20260906064704 70 286 0.9 2.6 0.00 0.00 0.00 54 1019.9
20260906063204 71 277 0.0 0.9 0.00 0.00 0.00 53 1019.9
20260906062704 72 277 0.0 2.6 0.00 0.00 0.00 52 1019.9
20260906062203 72 156 0.0 0.0 0.00 0.00 0.00 52 1019.9
20260906061704 73 155 0.0 0.0 0.00 0.00 0.00 52 1020.0
20260906060705 73 155 0.0 0.0 0.00 0.00 0.00 50 1020.0
20260906060205 73 155 0.0 0.0 0.00 0.00 0.00 50 1020.0
20260906055704 74 155 0.0 0.0 0.00 0.00 0.00 50 1020.2
20260906055204 74 155 0.0 0.0 0.00 0.00 0.00 50 1020.2
20260906054704 74 155 0.0 2.6 0.00 0.00 0.00 50 1020.1
20260906054203 74 290 0.0 2.6 0.00 0.00 0.00 50 1020.1
20260906053704 74 225 0.0 2.6 0.00 0.00 0.00 49 1020.1
20260906052704 75 216 0.9 1.7 0.00 0.00 0.00 48 1020.0
20260906051205 74 213 0.0 0.0 0.00 0.00 0.00 44 1020.4
20260906050204 74 213 0.0 2.6 0.00 0.00 0.00 44 1020.5
20260906045703 74 213 0.9 2.6 0.00 0.00 0.00 44 1020.6
20260906045203 73 184 0.9 4.3 0.00 0.00 0.00 45 1020.5
20260906044704 72 205 1.7 6.1 0.00 0.00 0.00 45 1020.6
20260906044203 71 162 0.0 1.7 0.00 0.00 0.00 46 1020.6
20260906043703 71 162 0.0 4.3 0.00 0.00 0.00 47 1020.5
20260906043203 71 24 0.0 1.7 0.00 0.00 0.00 47 1020.5
20260906042704 71 24 0.0 0.0 0.00 0.00 0.00 49 1020.3
20260906042204 71 24 0.0 0.0 0.00 0.00 0.00 49 1020.0
20260906041704 71 24 0.0 0.9 0.00 0.00 0.00 49 1019.8
20260906041204 71 24 0.0 0.0 0.00 0.00 0.00 47 1019.6
20260906040704 71 24 0.0 0.0 0.00 0.00 0.00 47 1019.5
20260906035204 72 24 0.0 1.7 0.00 0.00 0.00 46 1019.5
20260906034704 72 24 0.0 0.0 0.00 0.00 0.00 45 1019.4
20260906034204 72 24 0.0 0.0 0.00 0.00 0.00 45 1019.4
20260906033704 72 24 0.0 0.0 0.00 0.00 0.00 45 1019.3
20260906033204 72 24 0.0 0.9 0.00 0.00 0.00 44 1019.2
20260906032704 73 24 0.0 0.0 0.00 0.00 0.00 43 1019.2
20260906032204 73 24 0.0 0.0 0.00 0.00 0.00 44 1019.2
20260906031704 73 24 0.0 0.0 0.00 0.00 0.00 43 1019.2
20260906030704 74 24 0.0 0.9 0.00 0.00 0.00 43 1019.1
20260906030204 75 24 0.0 0.0 0.00 0.00 0.00 43 1018.9
20260906025703 75 24 0.0 0.0 0.00 0.00 0.00 42 1018.8
20260906025204 76 24 0.0 0.0 0.00 0.00 0.00 41 1018.7
20260906024704 76 24 0.0 0.0 0.00 0.00 0.00 40 1018.6
20260906024203 77 24 0.0 0.0 0.00 0.00 0.00 40 1018.4
20260906023704 77 24 0.0 0.0 0.00 0.00 0.00 39 1018.4
20260906023204 78 24 0.0 0.0 0.00 0.00 0.00 38 1018.3
20260906022703 78 24 0.0 0.0 0.00 0.00 0.00 37 1018.4
20260906022203 79 24 0.0 0.0 0.00 0.00 0.00 36 1018.3
20260906021706 79 24 0.0 0.0 0.00 0.00 0.00 36 1018.3
20260906021205 79 24 0.0 0.0 0.00 0.00 0.00 35 1018.3
20260906020706 80 24 0.0 0.0 0.00 0.00 0.00 34 1018.3
20260906020206 80 24 0.0 0.9 0.00 0.00 0.00 34 1018.3
20260906015706 81 24 0.0 0.0 0.00 0.00 0.00 33 1018.3
20260906015206 81 24 0.0 0.0 0.00 0.00 0.00 33 1018.3
20260906014706 82 24 0.0 0.9 0.00 0.00 0.00 32 1018.2
20260906013206 82 24 0.0 0.0 0.00 0.00 0.00 30 1018.0
20260906012705 83 24 0.0 0.0 0.00 0.00 0.00 29 1018.0
20260906012207 83 24 0.0 0.9 0.00 0.00 0.00 29 1018.1
20260906011705 83 24 0.0 0.9 0.00 0.00 0.00 29 1018.1
20260906011205 83 24 0.0 1.7 0.00 0.00 0.00 29 1018.1
20260906010706 84 24 0.0 2.6 0.00 0.00 0.00 28 1018.1
20260906010206 84 0 0.0 2.6 0.00 0.00 0.00 27 1018.0
20260906005705 84 1 0.9 4.3 0.00 0.00 0.00 27 1018.0
20260906005205 84 22 0.9 2.6 0.00 0.00 0.00 27 1018.0
20260906004706 85 33 1.7 6.1 0.00 0.00 0.00 26 1018.0
20260906004206 85 1 0.9 2.6 0.00 0.00 0.00 27 1017.9
20260906003705 86 39 0.9 2.6 0.00 0.00 0.00 28 1018.0
20260906003205 86 44 0.0 2.6 0.00 0.00 0.00 30 1018.0
20260906002706 87 44 0.0 0.0 0.00 0.00 0.00 29 1018.0
20260906002205 87 44 0.0 0.0 0.00 0.00 0.00 29 1018.0
20260906001705 88 44 0.0 0.0 0.00 0.00 0.00 28 1017.9
20260906001206 88 44 0.0 0.0 0.00 0.00 0.00 27 1017.9
20260906000206 89 44 0.0 0.0 0.00 0.00 0.00 24 1017.8
20260905235705 90 44 0.0 0.0 0.00 0.00 0.00 24 1017.8
20260905235205 90 44 0.0 0.0 0.00 0.00 0.00 23 1017.8
20260905234706 90 44 0.0 0.0 0.00 0.00 0.00 23 1017.8
20260905234205 90 44 0.0 0.9 0.00 0.00 0.00 24 1017.8
20260905233706 91 44 0.0 0.9 0.00 0.00 0.00 23 1017.8
20260905232705 91 44 0.9 2.6 0.00 0.00 0.00 22 1017.8
20260905232205 91 67 0.0 2.6 0.00 0.00 0.00 22 1017.7
20260905231706 91 61 0.9 2.6 0.00 0.00 0.00 22 1017.7
20260905231205 91 96 0.0 2.6 0.00 0.00 0.00 23 1017.7
20260905230705 91 5 0.9 4.3 0.00 0.00 0.00 21 1017.7
20260905230205 91 51 0.9 1.7 0.00 0.00 0.00 21 1017.7
20260905225205 92 157 0.0 1.7 0.00 0.00 0.00 23 1017.7
20260905224705 92 157 0.0 1.7 0.00 0.00 0.00 24 1017.7
20260905224205 92 157 0.9 2.6 0.00 0.00 0.00 23 1017.7
20260905223705 93 15 0.0 0.9 0.00 0.00 0.00 22 1017.7
20260905223205 93 15 0.0 1.7 0.00 0.00 0.00 22 1017.7
20260905222205 93 113 0.0 1.7 0.00 0.00 0.00 22 1017.8
20260905221705 94 110 0.9 2.6 0.00 0.00 0.00 20 1017.8
20260905221206 94 159 0.9 2.6 0.00 0.00 0.00 22 1017.8
20260905220705 94 159 0.9 4.3 0.00 0.00 0.00 22 1017.8
20260905220206 94 157 1.7 2.6 0.00 0.00 0.00 21 1017.9
20260905215706 95 137 1.7 2.6 0.00 0.00 0.00 21 1017.9
20260905215205 95 103 0.0 1.7 0.00 0.00 0.00 21 1018.0
20260905214705 95 223 1.7 2.6 0.00 0.00 0.00 19 1018.0
20260905214205 95 137 1.7 5.2 0.00 0.00 0.00 21 1018.0
20260905213705 95 173 0.0 1.7 0.00 0.00 0.00 22 1018.1
20260905212705 95 101 1.7 2.6 0.00 0.00 0.00 19 1018.3
20260905212205 95 140 1.7 2.6 0.00 0.00 0.00 21 1018.3
20260905211706 94 115 0.9 2.6 0.00 0.00 0.00 21 1018.4
20260905211205 94 94 0.0 2.6 0.00 0.00 0.00 21 1018.4
20260905210705 93 101 0.9 2.6 0.00 0.00 0.00 22 1018.4
20260905210205 93 109 1.7 2.6 0.00 0.00 0.00 20 1018.4
20260905205705 93 95 1.7 2.6 0.00 0.00 0.00 20 1018.5
20260905205205 93 180 0.9 2.6 0.00 0.00 0.00 20 1018.5
20260905204705 93 44 0.0 1.7 0.00 0.00 0.00 20 1018.6
20260905204206 93 64 0.9 2.6 0.00 0.00 0.00 22 1018.7
20260905203705 93 38 0.0 4.3 0.00 0.00 0.00 21 1018.8
20260905202205 92 138 1.7 5.2 0.00 0.00 0.00 22 1018.9
20260905201705 92 164 1.7 4.3 0.00 0.00 0.00 25 1018.9
20260905201205 91 152 0.9 4.3 0.00 0.00 0.00 22 1019.0
20260905200705 91 148 1.7 5.2 0.00 0.00 0.00 24 1019.0
20260905200205 91 148 1.7 4.3 0.00 0.00 0.00 23 1019.1
20260905195206 91 88 1.7 2.6 0.00 0.00 0.00 21 1019.3
20260905194705 90 92 1.7 4.3 0.00 0.00 0.00 22 1019.3
20260905194205 90 99 1.7 2.6 0.00 0.00 0.00 23 1019.3
20260905193706 90 76 0.0 6.1 0.00 0.00 0.00 27 1019.3
20260905193205 90 110 1.7 2.6 0.00 0.00 0.00 26 1019.4
20260905192705 90 67 1.7 4.3 0.00 0.00 0.00 23 1019.4
20260905191206 89 67 1.7 5.2 0.00 0.00 0.00 24 1019.5
20260905190205 89 66 3.5 7.8 0.00 0.00 0.00 23 1019.6
20260905185705 89 80 1.7 4.3 0.00 0.00 0.00 25 1019.6
20260905185205 89 113 1.7 2.6 0.00 0.00 0.00 25 1019.7
20260905184206 88 153 0.9 5.2 0.00 0.00 0.00 25 1019.7
20260905183705 88 29 2.6 5.2 0.00 0.00 0.00 25 1019.7
20260905183205 88 33 1.7 4.3 0.00 0.00 0.00 26 1019.8
20260905182705 88 89 0.9 5.2 0.00 0.00 0.00 29 1019.8
20260905182205 87 89 1.7 4.3 0.00 0.00 0.00 26 1019.8
20260905181705 87 77 0.9 2.6 0.00 0.00 0.00 28 1019.8
20260905180705 86 122 0.9 2.6 0.00 0.00 0.00 33 1019.9
20260905180205 85 103 0.9 2.6 0.00 0.00 0.00 32 1019.9
20260905175205 85 148 0.0 2.6 0.00 0.00 0.00 32 1020.1
20260905174705 84 76 0.9 2.6 0.00 0.00 0.00 31 1020.1
20260905171705 80 156 0.0 0.0 0.00 0.00 0.00 39 1020.0
20260905170705 80 156 0.0 0.9 0.00 0.00 0.00 39 1020.0
20260905170205 80 156 0.0 0.9 0.00 0.00 0.00 40 1019.9
20260905165705 80 156 0.0 0.9 0.00 0.00 0.00 42 1019.9
20260905165205 80 156 0.0 0.0 0.00 0.00 0.00 39 1020.0
20260905164205 80 156 0.0 1.7 0.00 0.00 0.00 37 1020.0
20260905163705 81 156 0.9 0.9 0.00 0.00 0.00 38 1019.9
20260905163205 81 156 0.0 0.9 0.00 0.00 0.00 37 1019.9
20260905162705 81 156 0.0 0.9 0.00 0.00 0.00 37 1019.9
20260905162205 81 156 0.9 2.6 0.00 0.00 0.00 37 1019.9
20260905161705 81 156 0.9 2.6 0.00 0.00 0.00 38 1019.8
20260905161205 80 156 0.0 0.9 0.00 0.00 0.00 41 1019.8
20260905160704 80 156 0.0 0.9 0.00 0.00 0.00 41 1019.8
20260905160205 79 156 0.0 0.9 0.00 0.00 0.00 40 1019.8
20260905155705 79 156 0.9 1.7 0.00 0.00 0.00 40 1019.8
20260905155205 78 156 0.9 1.7 0.00 0.00 0.00 42 1019.9
20260905153704 76 161 0.0 0.0 0.00 0.00 0.00 42 1019.8
20260905153205 75 161 0.0 0.0 0.00 0.00 0.00 43 1019.7
20260905152705 74 161 0.0 0.0 0.00 0.00 0.00 44 1019.7
20260905152205 73 161 0.0 0.0 0.00 0.00 0.00 47 1019.8
20260905151704 72 161 0.0 0.0 0.00 0.00 0.00 50 1019.7
20260905151205 70 161 0.0 0.0 0.00 0.00 0.00 58 1019.8
20260905150705 69 161 0.0 0.0 0.00 0.00 0.00 61 1019.8
20260905150204 69 161 0.0 0.0 0.00 0.00 0.00 65 1019.8
20260905145705 68 161 0.0 0.0 0.00 0.00 0.00 67 1019.9
20260905145205 67 161 0.0 0.0 0.00 0.00 0.00 68 1019.9
20260905144705 67 161 0.0 0.0 0.00 0.00 0.00 67 1019.9
20260905144205 66 161 0.0 0.0 0.00 0.00 0.00 68 1019.9
20260905143704 66 161 0.0 0.0 0.00 0.00 0.00 69 1020.0
20260905143205 65 161 0.0 0.0 0.00 0.00 0.00 68 1020.0
20260905142705 64 161 0.0 0.0 0.00 0.00 0.00 71 1020.0
20260905142205 63 161 0.0 0.0 0.00 0.00 0.00 74 1019.9
20260905141705 62 161 0.0 0.0 0.00 0.00 0.00 74 1019.9
20260905140206 60 161 0.0 0.0 0.00 0.00 0.00 75 1019.8
20260905135204 59 161 0.0 0.0 0.00 0.00 0.00 76 1019.7
20260905134705 59 161 0.0 0.0 0.00 0.00 0.00 76 1019.7
20260905134205 59 161 0.0 0.0 0.00 0.00 0.00 76 1019.7
20260905133704 58 161 0.0 0.0 0.00 0.00 0.00 75 1019.6